Regional Weather Roundup
Issued by NWS Upton, NY

Current Version | Previous Version | Graphics & Text | Print | Product List | Glossary Off
Versions: 1 2 3 4 5 6 7 8 9 10 11 12 13 14 15 16 17 18 19 20 21 22 23 24 25 26 27 28 29 30 31 32 33 34 35 36 37 38 39 40 41 42 43 44 45 46 47 48 49 50

000
ASUS41 KOKX 172108
RWROKX

REGIONAL WEATHER ROUNDUP
NATIONAL WEATHER SERVICE NEW YORK NY
500 PM EDT FRI APR 17 2015

NOTE: "FAIR" INDICATES FEW OR NO CLOUDS BELOW 12,000 FEET WITH NO
SIGNIFICANT WEATHER AND/OR OBSTRUCTIONS TO VISIBILITY.

NYZ071-072-176-178-NJZ106-104-172200-
NEW YORK CITY METRO AREA


CITY           SKY/WX    TMP DP  RH WIND       PRES   REMARKS
CENTRAL PARK   MOSUNNY   69  52  54 VRB5      29.93F
LAGUARDIA APRT PTSUNNY   71  53  52 W9        29.90F
KENNEDY INTL   PTSUNNY   65  54  67 SW13      29.93F
NEWARK/LIBERTY PTSUNNY   72  55  55 W14G22    29.91F
BRNX BOT. GARD   N/A     70  54  56 SW22      29.91S
TETERBORO      PTSUNNY   71  53  52 W12       29.89F
$$

NYZ177-179-078>081-172200-
LONG ISLAND NEW YORK

CITY           SKY/WX    TMP DP  RH WIND       PRES   REMARKS
FARMINGDALE    PTSUNNY   66  55  67 SW15      29.92F
ISLIP          PTSUNNY   62  54  74 SW12      29.91F
SHIRLEY        PTSUNNY   60  54  80 SW12      29.94F
WESTHAMPTON    CLOUDY    57  52  83 SW8       29.94F
MONTAUK POINT    N/A     59  53  80 SW7       29.94F
$$

NYZ052-065-067-172200-
HUDSON VALLEY

CITY           SKY/WX    TMP DP  RH WIND       PRES   REMARKS
WHITE PLAINS   PTSUNNY   68  53  58 VRB3      29.90F
NEWBURGH       CLOUDY    68  55  64 W16       29.91F
MONTGOMERY     CLOUDY    69  31  24 W8        29.90S
POUGHKEEPSIE   CLOUDY    69  52  54 W12       29.89F
ALBANY         PTSUNNY   66  48  52 NW16G28   29.91F
$$

NJZ001-105-106-008-010-013-015-019>022-104-172200-
NEW JERSEY

CITY           SKY/WX    TMP DP  RH WIND       PRES   REMARKS
NEWARK/LIBERTY PTSUNNY   72  55  55 W14G22    29.91F
TETERBORO      PTSUNNY   71  53  52 W12       29.89F
CALDWELL       PTSUNNY   71  53  52 SW9       29.91F
MORRISTOWN     PTSUNNY   70  55  60 SW17      29.92F
SOMERVILLE     PTSUNNY   71  54  54 MISG      29.91F
SUSSEX         CLOUDY    68  54  60 SW5       29.92F
ANDOVER          N/A     68  54  60 SW8       29.91F
TRENTON        CLOUDY    70  54  56 W7        29.94F
MILLVILLE      PTSUNNY   74  59  59 SW12      29.94F
ATLANTIC CITY  PTSUNNY   73  57  57 W12       29.94F
WRIGHTSTOWN    PTSUNNY   72  58  61 NW7       29.90F
TOMS RIVER     PTSUNNY   72  57  60 W9        29.94R
BELMAR         PTSUNNY   70  55  60 W10       29.94F
$$

PAZ047>061-062-071-172200-
EASTERN PENNSYLVANIA

CITY           SKY/WX    TMP DP  RH WIND       PRES   REMARKS
PHILADELPHIA   PTSUNNY   73  57  57 W8        29.94F
ALLENTOWN      CLOUDY    69  54  58 W9        29.93F
SCRANTON       CLOUDY    66  52  60 W12       29.94S
$$

CTZ002-004>006-009-010-012-RIZ004-006-007-MAZ004-011-015-172200-
SOUTHERN NEW ENGLAND
 IN CT

CITY           SKY/WX    TMP DP  RH WIND       PRES   REMARKS
BRADLEY INTL   PTSUNNY   68  51  54 W9        29.88F
HARTFORD       CLOUDY    67  52  58 W12       29.89F
DANBURY        CLOUDY    68  52  56 W5        29.91F
WTRBRY/OXFORD  PTSUNNY   64  54  68 SW5       29.91F
BRIDGEPORT     PTSUNNY   64  54  69 SW13      29.90F
MERIDEN        CLOUDY    67  53  61 W6        29.90F
NEW HAVEN      MOSUNNY   62  53  72 SW8       29.90F
CHESTER        MOCLDY    63  55  77 SW8       29.92F
GROTON         PTSUNNY   59  53  80 SW12      29.91F
WILLIMANTIC    CLOUDY    64  53  67 VRB6      29.89F

 IN RI

CITY           SKY/WX    TMP DP  RH WIND       PRES   REMARKS
PROVIDENCE     PTSUNNY   62  54  74 W9        29.89F
BLOCK ISLAND   CLOUDY    50  46  87 SW16      29.93S VSB 3/4
WESTERLY       PTSUNNY   56  54  93 SW10      29.92F

 IN MA

CITY           SKY/WX    TMP DP  RH WIND       PRES   REMARKS
BOSTON         PTSUNNY   63  51  65 W15G24    29.87S
WORCESTER      PTSUNNY   59  51  75 W13       29.89S
WESTFIELD      CLOUDY    65  51  60 W8        29.89F
PROVINCETOWN   CLOUDY    54  48  82 SW12      29.87F
NANTUCKET      CLOUDY    49  47  93 SW18      29.91F FOG
$$

ANZ330-335-338-340-345-350-353-355-172200-
COASTAL MARINE OBSERVATIONS


STATION/POSITION TIME  SKY/WX   TEMP    WIND        PRES    VSBY  WAVE
                                AIR SEA DIR/SP/G                  HT/PER
                 (UTC)          (F)     (DEG/KT/KT) (MB)    (MI)  (FT/S)
NY HARB ENTRANCE 2050            50 45  180/  8/  8 1013.5          3/ 9
4S FIRE IS       2003               44                N/A           3/ 9
20S FIRE ISLAND  1950               44              1015.1          3/ 8
23SW MTP         2050                                 N/A           4/ 9
HUDSON CANYON    NOT AVBL
EXECUTION ROCKS  NOT AVBL
WESTERN LI SOUND NOT AVBL
CENTRAL LI SOUND NOT AVBL
EASTERN LI SOUND 2000            49     250/  6/  6   N/A
ROBBINS REEF     2000            67     260/  8/ 11 1012.5
$$


>>>>>>>>>>>>>>>>>>>>>>>>>>>> KEY <<<<<<<<<<<<<<<<<<<<<<<<<<<
>                                                          <
>     SKY/WX - SKY CONDITION/PRESENT WEATHER               <
>     TMP    - TEMPERATURE IN FAHRENHEIT                   <
>     DP     - DEWPOINT IN FAHRENHEIT                      <
>     RH     - RELATIVE HUMIDITY IN PERCENT                <
>     WIND   - DIRECTION AND SPEED IN MPH                  <
>     PRES   - MEAN SEA LEVEL PRESSURE IN INCHES OF HG     <
>     WCI    - WIND CHILL INDEX                            <
>     VSB    - VISIBILITY IN MILES                         <
>     HX     - HEAT INDEX                                  <
>     TC     - TEMPERATURE IN CELSIUS                      <
>     VRB    - VARIABLE WIND DIRECTION                     <
>                                                          <
>>>>>>>>>>>>>>>>>>>>>>>>>>>> KEY <<<<<<<<<<<<<<<<<<<<<<<<<<<





USA.gov is the U.S. government's official web portal to all federal, state and local government web resources and services.